Theta_e
316 313 312 317 317 311 315 315 316 317 321 319 320 320 320 323 330 326 341 342 343 345 341 339 341 340 340 340 336 334 334 334 333 334 336 336 337 336 336 335 337 339 339 339 338 337 339 338 336
312 314 315 313 316 317 316 316 317 317 319 318 320 320 320 337 342 342 342 343 345 345 342 339 340 341 340 340 338 336 335 334 333 333 335 335 334 334 332 333 336 336 336 337 337 336 338 335 333
314 317 315 315 314 316 318 318 318 317 317 318 319 319 326 335 342 341 341 342 344 345 342 340 338 343 340 340 340 339 337 335 333 334 335 335 333 329 331 331 333 335 335 336 336 336 334 332 332
313 314 311 314 316 316 317 318 317 316 318 319 319 329 331 332 341 341 340 342 343 344 344 342 338 341 343 341 340 339 338 337 336 333 333 328 334 334 335 334 336 335 334 335 335 334 331 331 330
313 308 313 313 313 314 316 315 315 316 318 320 320 321 334 336 339 339 341 342 343 343 343 342 340 338 342 342 341 339 337 336 333 332 329 327 330 335 335 335 335 336 335 334 333 331 331 330 328
310 307 312 313 314 315 315 315 314 316 318 321 320 325 335 337 338 338 339 340 342 343 343 342 340 338 340 337 335 337 336 334 332 330 328 326 328 332 334 335 335 335 334 334 331 330 330 329 328
311 310 312 313 315 316 317 315 316 318 319 320 319 326 335 335 336 337 337 338 340 342 341 341 339 337 337 335 331 332 331 330 328 326 325 329 327 333 332 334 335 334 332 330 328 329 330 330 326
309 311 316 313 315 314 315 315 319 320 320 319 317 332 337 333 337 337 338 338 337 338 339 340 338 337 335 335 333 331 327 325 326 326 327 329 327 331 331 334 335 333 329 328 328 329 328 325 321
311 312 313 313 314 315 314 315 317 318 319 319 318 321 327 336 338 338 337 336 335 334 335 336 337 336 335 332 332 328 326 326 325 326 327 327 325 329 331 333 334 332 328 327 327 327 324 322 320
312 310 315 312 313 314 315 315 315 318 318 319 323 334 334 335 336 336 334 333 335 334 334 333 336 336 336 333 331 327 326 325 325 325 328 328 328 330 331 332 332 330 327 326 326 325 323 320 321
312 316 314 314 312 313 313 314 313 316 316 317 319 335 333 334 333 334 334 334 335 334 334 334 336 336 335 335 332 328 327 326 326 327 326 328 330 331 333 332 330 326 326 325 325 322 322 320 320
316 314 314 315 314 313 314 314 313 313 315 317 321 333 332 331 330 330 331 334 335 335 335 334 336 334 334 335 333 330 329 326 326 328 329 330 331 331 330 328 326 324 325 324 323 320 321 319 320
315 316 317 315 314 313 313 314 314 315 314 313 315 331 332 330 328 329 329 333 334 335 336 335 335 335 334 333 332 332 329 325 325 328 328 330 330 330 330 327 326 321 319 318 319 321 319 319 320
316 315 316 315 314 313 313 313 312 314 313 313 313 320 326 329 327 325 330 332 334 335 335 335 334 332 332 333 331 331 330 327 327 326 328 330 330 329 328 327 325 321 315 317 318 320 319 320 320
316 316 315 314 313 313 314 314 313 314 313 313 312 311 315 320 322 325 330 333 334 334 334 333 332 330 330 329 330 331 330 328 327 330 329 330 329 328 326 324 322 318 314 315 316 314 319 320 319
317 315 316 316 315 314 313 316 314 313 312 313 311 310 313 319 320 326 332 333 334 334 333 332 330 329 328 325 324 326 329 329 327 329 329 328 327 326 325 323 317 315 313 312 312 317 318 320 319
315 317 316 316 316 315 314 316 315 314 313 313 312 311 311 318 320 324 331 333 333 333 332 331 330 328 327 324 324 326 327 328 328 328 328 327 326 326 326 319 313 312 311 316 315 315 316 319 320
318 317 315 315 314 315 315 316 315 315 314 313 313 311 314 321 323 324 329 331 333 332 331 331 330 328 327 324 325 324 326 326 327 326 326 326 326 325 323 318 310 310 312 319 319 317 318 319 319
316 316 316 314 314 318 316 316 315 316 317 315 312 313 316 322 324 324 328 330 331 331 331 330 328 327 326 323 323 320 322 324 325 325 325 326 327 326 323 316 316 313 314 319 320 320 319 319 319
313 313 311 312 314 320 321 320 317 318 317 313 315 314 315 322 323 324 327 328 328 328 328 327 326 328 326 324 323 323 323 323 324 324 324 325 326 326 324 318 320 315 316 318 321 319 318 318 319
309 312 312 314 319 319 321 321 319 319 320 317 313 315 316 322 325 325 326 327 327 327 327 326 325 325 326 325 323 323 322 322 323 323 323 323 324 323 322 321 320 319 319 317 320 319 318 318 318
315 313 315 318 324 324 324 328 323 322 322 321 316 313 316 319 325 325 324 326 326 326 326 325 324 323 324 325 324 323 323 321 321 322 322 323 323 323 323 323 320 321 321 321 320 319 317 317 317
316 320 320 321 323 324 323 330 324 322 323 321 319 314 312 316 325 326 325 326 326 326 325 324 323 323 323 324 324 323 323 322 323 322 322 322 322 322 321 322 323 322 322 322 321 318 318 317 317
319 321 321 322 323 324 321 328 325 323 322 321 318 315 314 312 325 326 325 326 326 326 325 324 323 323 323 323 324 323 323 323 323 322 321 321 321 321 319 320 321 321 321 322 319 319 317 317 316
319 319 324 328 327 322 321 327 324 322 320 320 320 317 316 314 325 327 325 324 324 325 324 324 324 324 324 324 324 324 323 322 323 322 321 319 319 321 318 320 320 320 320 322 321 318 318 317 317
319 319 323 328 327 326 321 324 322 321 321 321 320 317 317 318 327 328 326 324 325 324 324 324 324 324 324 324 324 323 323 322 322 322 322 320 319 319 320 320 321 320 320 319 319 318 318 319 318
319 319 318 324 326 326 325 326 322 327 325 322 319 316 316 320 327 328 327 325 325 324 324 324 323 323 323 323 323 324 323 323 322 322 322 321 320 319 319 320 320 319 320 321 319 320 319 319 320
316 318 325 324 326 330 325 329 334 330 327 323 320 318 317 322 327 329 329 327 326 325 324 324 323 322 323 323 323 323 324 323 323 322 322 321 321 319 318 319 319 319 319 321 321 321 321 321 320
315 319 320 322 322 327 332 334 329 329 327 324 322 318 318 317 318 325 329 328 327 325 324 323 323 323 322 323 323 323 323 323 323 322 322 322 322 321 319 318 318 318 319 320 320 320 321 321 320
315 319 320 326 328 325 328 328 326 325 325 323 321 320 318 318 318 320 325 325 326 325 325 324 323 323 323 323 322 322 322 322 323 323 322 322 322 322 321 319 318 318 318 318 320 320 319 319 319
Wind_Speed
8 6 2 3 3 4 4 7 5 3 1 4 5 6 5 4 3 3 12 12 10 14 15 16 17 20 19 18 21 22 21 18 18 21 25 29 32 33 34 33 32 31 30 29 29 29 30 32 33
8 3 2 2 3 2 5 5 7 7 7 7 5 4 4 2 2 7 12 15 14 16 16 15 17 21 21 18 19 20 19 19 18 19 22 26 29 29 31 33 32 30 29 29 28 29 31 35 36
7 4 3 3 3 6 5 3 4 7 8 6 5 2 6 8 4 14 7 17 15 16 15 14 16 19 21 20 18 18 19 18 19 18 15 18 25 28 30 32 32 31 30 28 29 30 37 37 36
5 4 4 3 11 9 5 7 13 5 5 2 5 6 4 1 16 14 18 17 18 17 15 13 15 18 20 21 23 24 24 26 26 26 11 6 11 25 31 32 32 31 32 30 30 34 37 36 34
2 3 1 3 9 7 5 8 10 11 5 4 6 5 4 4 18 23 21 17 18 19 15 13 14 17 20 23 23 23 25 25 24 20 6 7 15 18 29 32 33 32 32 32 32 39 40 37 36
2 3 2 5 10 6 7 9 8 8 7 5 3 6 3 19 26 23 20 16 16 18 16 14 14 16 18 19 17 21 26 20 18 20 24 24 23 24 27 30 31 32 33 33 37 38 39 38 31
6 3 5 5 8 8 6 8 8 6 4 2 5 4 4 7 19 20 18 16 15 14 15 15 14 13 17 20 21 19 17 19 19 27 24 34 31 27 27 30 31 33 31 38 37 37 36 34 25
5 4 4 5 6 11 5 12 3 4 4 5 6 7 5 5 20 20 17 16 13 11 11 14 13 12 16 20 18 17 17 21 21 28 33 38 33 29 30 32 33 30 30 38 37 36 34 28 22
5 3 6 6 8 9 7 6 8 6 4 2 3 6 6 30 26 22 17 14 14 12 12 12 13 14 15 18 16 13 15 19 20 22 34 33 32 36 32 34 34 28 30 37 36 35 31 24 24
5 6 12 9 11 10 10 7 5 6 4 3 3 6 22 29 26 19 15 15 16 14 14 11 17 15 13 14 17 17 17 18 16 27 28 34 40 39 34 33 29 27 35 36 35 31 29 24 32
6 10 10 11 10 9 11 12 5 6 5 7 5 9 15 15 18 16 18 23 24 17 15 13 19 16 16 17 18 19 21 17 15 17 27 28 39 38 40 35 30 30 36 35 32 30 30 32 27
5 6 12 13 16 9 13 12 8 8 11 9 9 17 14 12 14 13 16 23 22 20 18 16 20 17 16 16 18 22 22 17 20 15 24 45 38 39 38 35 34 32 38 37 33 34 32 28 23
6 11 16 14 17 15 16 18 17 16 10 9 7 14 16 12 13 21 22 24 25 24 22 19 19 19 18 17 18 21 24 19 24 14 29 40 39 38 35 36 35 34 35 35 35 35 32 28 19
6 12 18 15 16 14 11 13 5 11 9 9 8 13 14 14 15 10 18 25 28 26 26 22 21 16 15 19 20 20 24 25 23 24 39 38 40 41 38 37 35 37 35 35 36 34 31 25 18
12 12 12 10 8 4 7 13 8 12 8 11 10 11 11 15 15 15 27 30 35 29 28 25 21 17 14 17 19 21 24 28 30 33 43 43 41 41 40 35 36 38 37 37 38 33 28 25 19
4 3 5 5 2 6 6 20 12 11 6 12 11 10 9 12 13 21 28 31 34 31 29 25 23 19 15 14 16 21 22 23 29 30 39 37 39 41 39 37 36 36 37 38 36 38 29 25 19
2 7 8 7 3 3 5 17 11 10 10 13 12 11 11 10 8 21 30 36 38 34 30 27 23 20 16 14 15 15 22 23 30 33 39 39 39 38 37 34 34 35 38 36 35 36 32 26 22
7 5 5 3 4 6 10 17 13 18 12 15 13 10 9 15 15 24 30 34 38 34 30 28 26 21 19 18 18 16 19 20 26 34 38 39 38 38 35 34 36 38 42 38 34 33 30 30 25
4 8 9 5 7 12 10 19 14 17 18 18 11 10 9 14 12 24 28 32 34 34 34 31 27 25 25 23 21 17 18 24 23 30 35 36 37 36 33 32 34 39 43 38 31 34 34 29 27
8 7 7 7 2 7 17 23 15 18 13 11 14 11 11 9 11 13 23 29 33 34 35 34 29 31 27 27 23 17 18 20 23 27 29 37 35 34 33 35 35 39 35 36 34 36 29 26 31
8 7 5 8 7 4 10 19 19 22 16 14 9 8 11 17 17 17 17 26 28 31 34 35 33 30 28 28 23 22 19 17 20 24 28 34 33 33 35 34 38 36 36 36 35 37 33 23 33
4 3 3 6 5 3 9 8 13 14 18 17 15 10 11 11 16 18 17 20 29 30 35 34 33 30 29 29 26 26 21 19 17 24 28 34 37 28 31 36 36 36 38 34 36 37 36 33 29
2 5 3 1 3 7 8 6 15 9 17 19 12 11 11 14 18 20 21 28 29 33 35 35 28 29 30 30 28 27 22 18 18 21 25 32 38 27 25 32 35 33 35 33 33 35 38 36 35
6 4 4 4 2 8 14 9 14 14 15 16 11 9 9 12 19 23 23 24 25 28 32 30 28 29 28 29 30 29 26 22 22 23 27 33 35 31 30 27 31 34 35 40 35 36 36 37 37
5 5 3 5 6 11 14 13 19 8 13 14 16 12 13 15 19 19 19 17 24 29 30 31 30 29 30 32 31 31 29 28 28 30 28 26 29 35 34 32 33 31 35 38 43 42 44 42 41
5 8 3 5 5 2 10 9 6 22 23 21 20 15 16 17 19 22 23 20 27 30 31 31 32 30 35 33 32 33 32 29 28 32 32 31 32 35 39 32 34 36 35 39 39 42 39 40 40
6 5 5 5 3 1 4 6 6 14 19 18 20 8 6 17 18 20 19 18 27 29 33 35 33 31 35 34 32 31 31 30 29 30 32 32 34 33 34 37 37 35 36 36 41 39 41 41 41
4 6 2 4 2 3 4 3 4 14 17 21 16 7 7 4 16 17 18 18 27 32 31 31 33 34 36 36 33 31 31 32 30 30 32 31 33 35 34 37 40 39 36 37 41 41 40 41 42
5 2 5 3 4 2 2 1 4 9 12 18 18 16 13 13 8 5 12 17 22 24 28 27 29 29 31 35 34 30 30 31 33 32 34 34 35 38 37 39 41 40 41 41 43 41 40 42 41
11 6 6 3 2 3 1 3 7 10 14 14 13 11 12 14 14 11 9 9 10 11 21 29 29 29 32 35 33 34 32 32 33 32 35 36 33 37 40 39 42 43 43 44 45 41 37 40 38
Wind_Direction
230 240 317 42 41 64 263 259 266 289 203 221 156 120 147 150 159 222 150 168 172 169 169 174 178 178 175 170 166 162 160 153 149 148 150 148 152 150 152 151 147 143 138 134 133 136 129 128 132
199 163 69 79 101 55 271 254 217 223 189 184 131 107 122 96 83 118 133 174 182 174 170 179 182 180 177 174 171 164 160 156 150 150 157 157 156 156 154 153 150 146 140 136 139 139 132 134 135
161 151 92 141 164 191 219 232 33 285 191 166 137 108 133 141 112 151 172 163 177 175 171 174 185 183 180 176 171 165 161 154 146 136 151 154 159 155 157 153 150 147 141 143 145 141 137 136 134
156 34 15 139 241 241 228 315 299 259 291 177 144 99 73 267 155 174 151 157 172 175 173 171 180 189 188 186 177 173 168 160 150 140 99 164 185 161 159 152 149 146 144 146 146 144 139 135 134
138 76 133 248 258 265 244 244 270 260 197 189 162 168 87 41 135 144 153 154 165 173 175 172 180 190 193 198 195 190 175 175 159 151 205 230 208 197 164 157 152 150 148 146 150 143 141 138 132
56 103 110 229 258 276 275 268 282 217 176 191 109 95 153 146 136 145 147 152 173 170 171 174 180 189 191 188 183 184 174 186 209 206 205 191 200 204 174 162 156 153 151 153 150 149 146 141 134
136 100 217 223 269 292 288 307 242 204 125 166 172 89 146 208 155 152 149 153 150 159 167 176 181 189 191 182 176 178 192 215 210 199 176 182 184 203 185 167 159 158 158 153 153 153 148 147 143
132 110 255 223 242 276 244 347 221 163 216 168 158 163 192 206 158 150 153 154 153 162 177 182 190 203 194 193 197 214 209 210 215 201 179 180 182 199 187 170 164 161 161 156 157 156 150 145 135
136 123 243 216 223 244 334 359 330 307 147 214 204 146 192 154 153 149 150 157 155 168 181 189 197 206 197 198 210 198 192 197 195 186 188 189 190 200 186 177 168 165 165 160 161 157 150 143 141
154 176 233 205 238 276 298 298 329 295 280 266 62 26 127 143 157 164 177 173 169 177 176 183 189 197 191 199 191 184 186 184 206 204 184 203 189 183 182 177 169 168 166 164 163 161 155 138 144
201 221 244 263 258 258 273 289 256 248 269 242 240 168 154 166 176 181 189 180 179 179 178 170 181 189 191 196 192 191 189 189 170 191 192 197 179 175 171 167 169 167 169 169 168 165 157 140 143
251 236 240 260 259 259 262 269 264 193 229 213 182 177 170 180 188 197 190 180 178 180 178 165 176 176 180 190 193 196 198 196 181 174 176 169 160 164 163 165 171 170 171 170 171 167 159 148 137
224 245 252 250 257 257 259 260 257 261 232 239 179 169 188 194 197 200 200 182 170 173 173 169 174 184 184 186 186 192 195 187 180 166 175 159 161 159 164 168 171 172 171 172 171 170 165 152 138
241 238 250 253 257 259 259 262 183 255 250 248 221 188 194 193 196 182 162 160 166 171 170 169 174 180 193 191 189 186 195 193 181 183 176 178 167 165 170 171 175 173 171 170 170 173 167 151 137
244 257 272 250 241 252 297 283 254 260 239 249 244 248 190 198 185 184 175 165 169 174 169 171 177 180 195 202 201 198 195 193 184 174 182 186 176 176 175 171 173 174 171 170 171 174 160 155 145
283 250 243 259 274 244 192 274 266 267 248 256 247 243 210 203 187 179 171 164 169 171 172 173 177 177 184 183 189 191 197 199 197 185 177 175 176 178 174 177 175 174 172 171 171 169 158 162 157
261 247 260 298 188 279 206 283 277 272 240 254 253 249 219 186 177 177 172 169 170 173 170 173 178 177 179 181 169 178 186 187 188 190 181 181 181 181 180 178 175 176 173 171 170 172 166 170 172
224 255 254 224 315 306 284 282 277 283 258 246 237 236 196 182 190 175 169 168 168 172 172 173 177 183 181 173 166 171 184 192 183 181 181 182 185 182 182 182 177 178 176 174 176 175 177 174 177
246 270 270 292 314 317 312 283 276 289 294 259 219 207 199 189 178 168 163 163 162 166 168 173 175 186 180 177 167 163 169 179 181 179 179 177 180 179 181 181 180 181 181 180 180 180 182 177 180
237 256 289 281 205 350 322 290 285 297 287 249 213 213 200 178 157 163 157 160 163 164 169 170 174 179 189 186 181 177 178 185 185 178 186 181 183 183 183 183 184 188 187 183 182 183 177 180 185
249 231 246 271 338 266 301 286 284 281 291 281 234 206 205 182 173 167 166 166 163 164 170 172 175 182 191 192 181 176 175 174 181 188 184 185 187 190 191 190 188 193 197 192 190 189 184 179 188
253 270 326 337 5 257 50 280 277 280 291 281 270 212 203 186 182 173 165 167 172 171 172 175 172 180 189 193 183 178 178 176 185 184 191 192 191 186 196 199 193 201 205 198 199 195 191 186 184
199 67 10 12 267 311 226 240 260 266 279 273 270 245 215 188 176 177 178 176 173 167 171 173 170 174 183 183 184 184 182 187 175 179 184 184 190 198 195 200 197 202 205 203 209 200 199 193 189
109 57 325 232 208 251 226 203 261 253 254 267 263 260 228 196 187 179 180 164 164 164 168 170 170 172 177 182 183 181 181 178 178 185 194 199 198 204 203 201 203 209 204 202 202 204 209 202 203
80 71 303 212 203 239 171 202 247 240 243 262 264 269 253 186 184 169 162 164 163 169 170 172 174 173 178 184 187 184 184 184 187 190 195 196 201 208 209 210 211 211 210 207 209 210 210 209 211
158 156 231 253 222 312 206 241 237 221 230 256 255 275 265 182 175 171 170 170 170 171 172 175 177 175 179 181 188 192 194 191 193 193 197 200 202 208 210 213 217 221 217 212 212 215 218 218 219
159 188 212 287 253 259 238 288 262 22 13 317 262 258 180 165 168 172 169 170 170 174 177 181 181 179 183 186 188 191 194 195 195 197 201 205 208 211 211 215 215 217 221 221 219 220 221 221 221
139 116 201 209 248 245 272 260 43 27 359 5 8 350 47 135 165 167 168 172 179 180 179 181 184 183 184 187 191 194 196 199 199 198 199 203 209 211 210 216 219 219 220 219 219 219 222 221 225
170 160 191 270 260 263 296 326 11 4 348 7 354 5 61 71 68 135 175 177 174 169 175 178 183 185 187 188 190 193 197 200 204 202 206 208 213 216 214 217 220 223 223 223 225 223 224 227 228
192 175 167 228 263 261 311 268 349 353 349 358 25 9 22 59 58 65 109 87 102 160 174 183 186 187 191 193 194 197 204 209 206 208 214 213 211 216 221 219 221 223 224 226 225 223 223 227 226